Probability
4 2 1 1 1 0 0 0 0 0 0 0 0 0 0 0 0 0 0 0 0 0 0 0 1 2 3 3 4 5 4 3 4 6 6 2 1 2 2 2 1 0 1 2 2 3 5 7 7
3 2 1 1 1 0 0 0 0 0 0 0 0 0 0 0 0 0 0 0 0 0 0 0 1 2 3 3 4 5 4 3 5 7 6 4 2 2 2 2 1 0 1 2 2 1 3 4 4
1 1 1 1 0 0 0 0 0 0 0 0 0 0 0 0 0 0 0 0 0 0 0 0 0 2 3 3 4 4 3 3 5 7 7 5 4 3 3 3 2 1 3 4 2 1 1 2 1
1 1 1 1 0 0 0 0 0 0 0 0 1 1 0 0 0 0 0 0 0 0 0 0 1 2 3 3 3 4 3 3 4 5 6 5 4 4 4 4 2 2 4 5 3 2 2 1 0
2 2 2 1 0 0 0 0 0 0 0 1 2 2 1 0 0 0 0 0 0 0 0 0 1 3 4 4 4 4 4 4 4 5 5 5 6 6 5 5 3 3 4 4 3 3 3 1 0
2 1 1 0 0 0 0 0 0 0 0 2 3 2 1 0 0 0 0 0 0 0 0 0 1 3 5 5 6 6 6 6 6 6 6 6 8 8 8 6 4 4 4 4 3 3 3 2 1
3 1 0 0 0 0 0 0 0 0 0 1 3 2 1 0 0 0 0 0 0 0 0 0 0 2 3 5 6 7 7 7 7 7 6 7 8 9 9 7 5 5 5 4 3 3 3 3 3
4 2 1 0 0 0 0 0 0 0 0 1 2 2 1 1 1 0 0 0 0 0 0 0 0 0 1 2 5 7 7 8 8 8 8 7 8 9 8 6 5 5 5 4 3 3 3 3 3
4 2 1 0 0 0 0 1 1 1 0 0 2 3 4 4 3 1 0 0 0 0 0 0 0 0 0 1 4 6 7 7 8 8 8 7 7 7 7 6 5 6 6 4 3 3 3 4 4
1 1 1 0 0 0 0 1 2 2 0 1 3 6 7 6 4 2 1 0 0 0 0 0 0 0 0 1 2 3 4 5 5 5 5 5 4 4 5 5 5 6 5 4 3 3 4 4 4
1 0 0 0 0 0 1 3 4 3 1 2 4 7 8 7 4 3 2 1 0 0 0 0 0 0 0 1 2 2 3 4 4 3 3 3 3 3 4 4 5 5 4 3 3 3 3 4 4
2 1 0 1 0 0 1 4 6 4 2 2 3 5 6 6 5 4 3 1 0 0 0 0 0 0 0 1 2 3 4 6 5 3 2 3 4 4 4 4 4 4 3 3 3 3 3 3 3
2 1 0 0 0 0 2 6 8 7 4 1 1 3 4 4 5 6 4 2 2 2 1 1 0 0 1 1 2 4 6 7 6 4 3 4 4 4 5 4 4 3 3 3 3 3 3 3 3
1 0 0 0 0 1 3 7 10 9 6 2 0 1 3 4 5 7 6 4 3 3 2 1 1 1 2 2 3 4 5 5 5 4 4 3 2 2 3 4 3 3 3 3 3 3 3 3 3
0 0 0 0 0 1 3 6 9 10 7 3 1 1 4 5 5 7 7 4 3 3 2 2 2 3 3 3 4 4 3 2 3 3 2 1 0 1 2 3 3 3 3 3 3 3 3 3 3
0 0 1 1 0 1 3 6 8 8 7 5 2 3 6 7 6 7 7 5 3 3 3 3 3 3 3 3 3 3 2 1 2 2 1 0 0 0 1 2 2 2 1 1 3 3 3 3 3
0 0 1 1 0 1 3 6 7 6 6 6 4 5 7 9 8 8 7 4 3 4 5 4 3 3 2 3 4 5 4 3 2 1 0 0 0 0 1 1 1 1 0 1 2 3 3 3 3
0 0 1 1 0 1 4 6 5 4 4 6 6 8 9 11 12 10 6 3 3 5 5 5 5 3 3 4 6 7 7 6 4 2 0 1 1 1 1 0 0 0 0 0 1 3 3 3 3
0 0 0 0 0 1 3 3 3 2 4 7 9 11 11 13 13 11 6 5 5 5 4 4 5 4 4 6 8 8 8 8 6 3 2 2 3 2 1 1 1 0 0 0 1 2 3 3 3
0 0 0 0 0 1 1 1 1 1 3 7 11 14 14 14 14 12 10 11 10 8 7 6 5 5 5 7 8 7 7 7 6 4 3 3 4 4 3 3 2 1 0 0 1 2 3 3 3
0 0 0 0 0 0 0 0 0 0 1 5 10 15 17 17 14 13 13 16 16 14 12 11 8 7 8 10 9 7 6 7 6 5 3 2 2 4 5 4 3 2 1 1 1 3 3 3 3
0 0 0 0 0 0 0 0 0 1 2 4 10 16 20 19 16 15 15 17 19 18 17 15 13 12 13 14 11 8 7 7 7 7 5 3 3 4 5 4 3 3 3 3 3 3 3 3 3
0 0 0 0 0 0 0 0 0 1 2 4 10 17 20 20 19 19 19 19 19 19 18 17 15 15 16 17 14 11 8 7 7 7 7 6 6 7 6 5 4 4 4 5 5 4 4 4 4
0 0 0 0 0 0 0 0 0 1 2 4 10 16 19 19 20 23 22 20 19 19 17 16 16 17 18 18 16 13 10 7 6 6 6 8 9 9 8 6 6 6 7 7 6 6 6 5 5
0 0 0 0 0 0 0 0 0 1 2 5 9 14 16 17 19 22 21 19 19 18 16 14 16 19 20 19 16 13 11 8 7 6 7 9 12 12 10 9 9 9 10 10 9 8 7 8 8
0 0 0 0 0 0 0 0 1 1 3 6 9 11 13 15 18 19 18 17 18 18 16 15 17 21 21 18 15 13 12 11 11 10 10 11 13 14 13 11 11 11 12 14 13 11 10 11 11
0 0 0 0 0 0 0 1 2 3 5 7 10 11 11 13 16 16 16 17 19 19 16 15 17 20 20 18 17 15 15 15 15 14 13 12 12 12 13 13 12 12 14 16 17 15 14 13 13
0 0 0 0 0 0 0 2 3 4 5 7 10 11 10 12 15 15 17 19 22 22 18 16 17 20 21 20 20 19 17 15 14 13 12 12 11 11 12 13 12 12 14 17 18 17 16 15 13
0 0 0 0 0 0 0 1 2 4 6 9 12 12 12 14 16 18 20 21 22 24 23 21 21 22 22 21 21 21 18 14 13 12 11 11 12 12 12 12 11 12 14 17 18 18 17 15 12
0 0 0 0 0 0 0 0 1 3 6 12 15 14 14 15 17 22 24 24 22 23 26 27 26 26 24 22 21 22 20 17 14 13 11 12 13 13 11 10 11 13 14 16 18 17 16 14 11
Wind_Speed
10 7 3 1 2 3 2 3 6 7 6 8 10 10 9 7 4 5 3 6 7 6 4 6 10 10 11 11 11 11 12 13 14 15 15 16 16 16 16 16 16 16 17 16 16 15 14 13 13
6 5 2 1 3 3 2 4 8 8 9 10 10 10 8 7 6 8 5 6 8 7 4 6 10 11 11 11 12 12 12 14 14 15 15 15 16 16 16 16 16 16 16 16 15 15 14 13 12
6 4 1 2 2 3 4 5 9 9 9 8 7 7 6 6 6 5 6 9 8 6 4 6 10 11 11 11 11 12 12 14 14 14 15 15 16 16 15 15 16 15 15 15 14 14 13 12 11
3 1 1 2 2 2 6 6 9 10 9 9 8 7 5 5 5 8 10 10 8 5 4 6 10 11 11 12 12 12 13 13 13 14 15 15 15 15 15 15 15 15 15 14 14 13 12 11 10
1 2 2 2 2 4 6 8 10 10 7 9 11 8 5 5 11 12 11 10 9 6 4 5 10 11 11 12 12 12 13 13 13 14 14 14 14 15 15 15 15 14 14 14 13 12 11 10 9
1 2 3 2 4 5 5 8 11 12 12 11 11 8 4 6 10 9 10 9 8 7 5 5 10 11 11 12 12 12 12 12 13 13 13 13 13 13 14 14 14 13 13 12 12 11 10 9 7
2 2 2 3 5 5 6 8 11 11 11 8 8 7 4 5 8 9 9 8 8 7 5 4 4 7 10 11 11 11 12 12 12 13 13 13 13 12 13 13 13 12 12 11 11 10 9 8 7
3 2 2 2 5 5 6 6 9 11 9 9 7 8 6 7 8 9 8 8 7 6 5 4 4 4 4 6 10 10 10 11 12 12 12 12 12 11 12 11 11 11 11 10 10 9 8 7 6
3 3 2 4 5 5 8 10 7 9 10 6 6 8 10 12 10 9 8 6 6 6 4 4 3 3 3 4 7 7 9 9 9 9 10 8 4 4 6 9 11 11 10 10 9 8 7 6 5
4 3 5 5 7 8 10 11 8 8 11 8 10 11 13 12 11 10 9 7 6 6 5 4 4 3 3 4 3 3 3 3 3 3 4 3 3 3 5 7 10 10 10 9 8 7 5 4 2
3 4 3 3 7 10 9 9 7 11 8 11 14 15 13 11 10 10 8 8 7 7 6 5 4 4 3 3 3 2 2 2 3 3 3 3 2 2 2 2 4 4 5 3 4 3 2 2 2
2 2 3 4 7 9 8 8 7 8 10 13 15 15 13 12 10 9 9 8 7 7 6 5 5 4 3 3 3 3 2 2 2 3 4 3 2 2 2 2 2 2 2 2 2 2 2 3 3
1 3 3 4 7 8 10 9 9 8 13 14 15 14 12 11 9 8 8 8 7 6 6 5 5 5 4 3 3 4 3 3 3 2 3 4 3 3 3 2 2 2 2 2 2 3 3 2 2
3 2 4 5 7 6 10 7 7 10 13 13 13 12 11 11 10 8 8 8 7 7 6 5 5 5 4 3 3 3 3 3 2 2 3 4 3 3 3 3 2 2 2 2 2 3 3 2 2
1 3 2 3 5 6 9 6 7 11 13 13 12 11 11 10 10 10 10 9 8 8 6 6 5 4 4 4 3 3 3 3 3 2 3 3 3 4 3 3 2 2 2 3 2 2 2 2 2
3 3 0 2 5 4 8 5 7 10 12 12 12 12 10 9 10 10 10 8 8 8 7 6 6 5 4 3 3 3 3 3 3 2 2 3 3 4 3 3 2 3 3 2 2 2 2 1 1
2 1 2 2 3 4 5 6 8 10 12 11 11 11 11 9 9 9 10 9 9 8 7 6 5 5 4 4 3 3 3 2 2 2 2 3 3 4 3 3 2 3 3 2 3 2 2 2 1
4 2 2 3 4 4 4 6 10 10 12 11 10 10 10 11 10 10 10 10 9 8 7 6 5 5 4 3 2 2 2 1 1 2 2 3 3 4 4 3 3 3 3 2 2 3 2 2 2
5 4 5 5 3 4 5 8 11 10 10 10 9 10 11 11 10 9 10 10 9 8 7 6 6 5 4 3 3 2 2 1 1 1 2 3 3 4 4 3 3 3 3 3 3 3 3 2 2
4 4 4 4 2 4 5 6 9 11 13 13 13 12 12 10 9 9 9 9 10 9 8 7 7 6 5 4 3 2 2 1 1 1 2 3 4 4 5 4 3 4 3 3 3 3 2 2 3
5 6 5 3 0 2 5 1 4 6 7 9 10 11 12 14 13 12 11 10 10 10 9 8 7 6 5 4 3 2 2 1 1 0 1 2 3 4 4 4 4 4 4 4 4 4 4 3 2
5 6 5 4 2 1 3 3 5 5 6 8 10 10 11 12 13 12 12 11 11 10 9 8 7 6 5 5 4 4 3 3 3 2 2 1 3 4 4 4 4 4 3 4 4 4 3 4 3
6 4 2 2 3 1 1 3 5 3 6 10 11 12 12 13 14 14 13 13 11 11 9 8 7 6 5 6 6 5 4 3 2 2 2 1 2 3 3 4 4 4 3 4 4 3 4 3 3
2 4 6 5 5 1 3 3 5 5 9 10 10 12 12 13 14 12 12 11 10 9 8 8 7 6 6 6 5 5 5 4 3 2 2 2 1 2 2 3 3 4 3 4 4 4 4 3 3
4 7 5 5 4 4 2 2 6 8 7 9 12 12 13 12 12 12 13 12 11 11 10 9 8 7 7 6 5 5 5 5 5 3 3 2 2 2 3 3 3 3 3 4 3 3 3 3 3
3 9 8 5 4 4 2 3 6 6 5 7 9 10 11 11 11 12 13 13 12 12 11 10 10 8 7 7 6 5 5 4 3 4 3 3 3 3 3 3 3 3 3 4 3 3 3 3 3
4 3 7 7 2 0 3 3 5 2 2 3 6 8 9 11 11 11 11 11 11 11 11 11 10 8 7 6 6 5 5 4 4 4 3 2 2 2 2 3 3 3 3 3 3 2 3 2 2
6 7 5 6 4 2 2 2 4 3 2 2 4 6 7 9 10 10 10 10 10 10 9 9 9 8 7 6 6 6 5 4 4 3 3 3 3 2 2 3 3 3 3 3 3 2 2 1 2
2 3 5 4 6 6 3 6 6 7 7 6 4 5 6 8 9 8 8 8 9 8 8 8 7 7 7 6 6 5 4 4 4 3 3 3 2 3 3 3 3 3 3 2 2 2 2 2 1
4 5 6 5 2 4 4 6 4 7 7 7 5 4 4 5 7 8 7 7 7 7 7 7 7 7 7 7 6 5 4 4 4 3 3 3 3 3 3 2 2 2 2 3 3 3 2 3 3
Wind_Direction
160 158 161 178 54 51 72 91 103 89 70 69 77 82 79 63 86 122 157 141 134 132 130 118 114 112 106 105 107 104 106 114 120 122 123 125 126 125 125 127 130 130 128 126 127 130 130 130 128
158 164 174 59 75 77 71 99 95 99 119 110 85 82 78 68 80 107 124 135 131 130 125 116 115 113 108 107 110 109 109 115 120 123 124 125 126 126 125 125 128 129 131 131 131 130 129 129 128
169 179 133 76 96 139 129 113 110 107 107 100 86 64 65 96 102 119 141 136 124 120 124 123 117 112 108 107 112 113 114 118 120 123 126 126 127 128 128 127 129 129 131 133 134 132 133 131 131
160 130 43 70 93 145 137 138 121 107 86 83 93 72 60 85 111 129 134 132 124 120 122 125 119 113 110 110 112 114 117 119 121 123 124 125 127 129 130 130 130 131 133 134 135 135 135 134 135
101 89 59 64 100 109 122 125 118 108 95 94 95 93 77 79 110 125 130 131 128 124 119 123 122 116 113 112 114 114 118 121 122 124 125 127 128 130 131 132 132 132 133 134 136 137 136 137 140
75 76 78 77 100 102 115 113 107 103 109 109 105 102 91 118 123 131 130 130 129 129 123 122 125 121 117 118 119 120 122 125 128 129 130 131 134 134 135 136 137 137 137 138 139 139 140 141 141
141 103 129 119 109 113 123 118 117 123 125 123 123 103 114 128 132 130 124 124 123 126 123 114 120 121 123 123 124 126 128 131 132 133 135 137 138 139 140 142 142 143 143 144 145 145 145 146 147
169 106 87 122 121 122 129 110 119 122 115 124 121 122 147 153 133 123 119 119 122 124 123 116 113 113 120 127 129 130 132 134 137 138 140 142 143 142 144 145 146 148 150 152 152 152 153 153 154
144 98 158 167 141 138 124 109 99 92 101 102 98 121 142 139 127 118 112 110 122 127 131 130 130 128 132 131 135 135 138 140 142 142 144 143 135 140 147 150 153 155 158 160 161 160 161 155 153
146 152 200 177 152 141 132 127 127 107 102 101 102 114 129 133 132 128 128 134 137 142 149 150 148 148 149 143 129 122 130 130 127 129 136 127 127 144 155 158 163 164 164 164 165 163 157 147 122
166 172 150 129 138 132 130 132 125 124 126 140 138 141 140 136 135 136 142 149 153 154 153 153 153 154 153 137 134 129 124 124 130 140 143 135 133 141 154 154 168 168 166 158 153 155 144 134 125
156 180 143 140 134 126 129 126 120 133 151 149 143 144 143 145 148 149 151 154 152 147 149 149 154 152 153 145 144 145 141 142 150 159 156 150 150 147 153 155 158 149 147 143 138 132 137 135 141
180 156 131 145 129 124 119 120 120 128 137 140 139 142 147 150 151 150 149 148 147 148 151 152 149 148 150 143 153 151 154 156 161 155 161 160 158 160 160 157 153 149 142 141 140 142 152 155 156
196 129 121 134 117 111 113 111 106 136 140 142 146 151 154 154 153 145 143 145 150 153 155 154 148 146 142 143 146 145 152 151 151 152 157 159 160 158 155 152 148 149 152 150 149 155 160 158 152
95 75 58 123 118 128 109 94 133 148 144 148 154 159 158 158 155 155 158 155 155 156 156 157 150 138 136 136 138 137 141 140 144 150 151 150 150 154 153 148 148 153 147 142 134 137 140 147 145
34 56 56 239 147 151 115 150 169 157 150 157 161 163 163 165 163 161 160 154 153 152 153 160 153 142 141 137 133 131 137 146 153 158 157 160 157 155 150 152 165 157 145 146 146 141 124 124 132
14 148 216 239 194 152 125 165 180 168 156 163 169 166 165 164 162 161 161 158 155 155 153 151 145 145 145 137 134 132 138 152 165 160 158 167 167 164 155 162 169 160 152 157 162 143 143 146 153
232 218 242 233 213 143 138 166 171 174 166 171 173 167 165 167 171 166 162 156 154 153 151 149 143 147 142 129 117 107 112 142 148 159 170 173 171 166 158 164 169 163 154 156 152 150 148 150 160
214 218 248 255 202 141 163 164 174 177 171 172 173 171 170 175 172 163 160 155 151 150 150 152 149 155 147 141 147 149 159 167 156 175 178 177 174 167 164 168 162 162 164 171 165 152 149 158 142
233 230 252 270 203 142 161 174 182 180 182 180 179 178 175 171 166 165 161 159 160 161 162 160 161 162 163 166 168 167 164 170 169 177 170 177 175 171 172 171 170 171 166 167 171 158 156 179 165
243 209 213 214 326 76 119 138 200 195 184 185 183 178 176 175 173 174 170 167 165 168 170 168 169 167 170 160 142 127 97 80 84 135 192 194 180 177 177 176 174 178 174 181 185 171 163 178 198
246 227 198 185 139 239 143 176 246 206 191 190 189 185 181 179 177 176 173 169 171 174 172 169 170 169 169 159 154 152 157 176 203 201 205 206 189 186 183 183 178 179 181 182 192 181 175 168 190
223 218 177 168 142 108 13 130 262 190 193 204 197 189 185 182 179 177 174 171 170 171 171 168 166 166 165 165 166 168 174 188 192 185 182 207 213 199 190 182 177 181 184 185 189 181 182 182 185
169 55 36 44 71 43 242 153 257 222 208 197 189 185 183 183 179 174 170 164 165 167 165 166 166 171 169 168 169 172 177 176 171 186 186 208 218 210 202 184 181 184 186 189 193 190 187 192 193
87 85 39 4 11 263 255 144 236 237 212 190 184 183 181 180 176 169 169 169 170 170 169 169 171 178 177 172 174 177 179 177 184 194 196 196 203 211 209 193 187 189 194 192 185 185 198 196 197
184 135 152 180 211 268 331 218 251 242 206 184 175 172 172 176 176 175 174 172 172 173 173 173 177 182 181 178 182 182 178 177 187 193 191 198 208 212 202 193 190 190 191 194 186 188 206 202 212
153 165 166 139 158 160 284 287 319 11 91 128 146 152 167 173 175 175 171 170 171 172 176 178 178 178 179 179 177 182 182 181 184 189 191 200 208 197 189 190 188 190 186 185 177 196 215 211 222
154 155 101 115 145 197 260 246 238 226 188 141 144 155 171 169 168 169 170 172 173 173 174 173 172 175 175 174 175 178 183 183 181 179 187 192 197 194 178 188 187 188 187 181 174 192 218 200 228
95 92 106 121 150 154 198 256 222 192 170 152 163 157 156 162 162 163 169 172 169 165 166 166 168 168 174 180 178 184 188 186 180 181 190 189 184 178 180 186 179 177 183 182 177 194 179 178 212
148 146 131 141 195 155 162 257 247 172 158 152 156 152 141 143 149 151 152 154 155 159 164 167 171 174 180 180 176 183 186 180 184 191 192 184 179 182 178 172 166 174 180 180 182 194 192 190 199